Flag for Japan Weather past 2 weeks in Utsunomiya, Japan

Now
70 °F

Mild.


Feels Like: 70 °F
Forecast: 60 / 86 °F
Wind: 8 mph from East

Location: Mito

Current Time: May 29, 2015 at 1:57:40 PM

Latest Report: May 29, 2015 at 1:00 PM


Visibility: N/A

Pressure: 29.84 "Hg

Humidity: 79%

Dew point: 63 °F

Location of UtsunomiyaLocation

Historic Weather in Utsunomiya — Graph

°F

Utsunomiya temperature yesterday

Maximum temperature yesterday: 73 °F (at 1:00 PM)
Minimum temperature yesterday: 63 °F (at 12:00 AM)
Average temperature yesterday: 67 °F

Past Weeks' High & Low Weather Summary

 TemperatureHumidityPressure
High85 °F (May 14, 2:00 PM)98% (May 19, 3:00 AM)30.01 "Hg (May 19, 3:00 AM)
Low51 °F (May 22, 4:00 AM)21% (May 18, 12:00 PM)29.47 "Hg (May 20, 4:00 PM)
Average67 °F70%29.81 "Hg
* Reported May 14 1:00 PM — May 29 12:00 Noon, Utsunomiya, Weather by CustomWeather, © 2015

Note: Actual official high and low records may vary slightly from our data, if they occured in-between our weather recording intervals... More about our weather records

Advertising

Utsunomiya weather history for previous 24 hours

 ConditionsComfort  
Time TempWeatherWind HumidityBarometerVisibility
12:00 PM
Fri, May 29
72 °FMild.8 mph74%29.86 "HgN/A
11:00 AM72 °FMild.7 mph73%29.90 "HgN/A
10:00 AM72 °FMild.6 mph71%29.92 "HgN/A
9:00 AM71 °FOvercast.5 mph74%29.93 "Hg9 mi
8:00 AM71 °FMild.5 mph77%29.94 "HgN/A
5:00 AM64 °FMild.3 mph95%29.96 "HgN/A
4:00 AM64 °FMild.3 mph95%29.96 "HgN/A
3:00 AM64 °FOvercast.2 mph95%29.96 "Hg6 mi
2:00 AM64 °FMild.3 mph96%29.97 "HgN/A
1:00 AM65 °FMild.3 mph94%29.98 "HgN/A
12:00 AM66 °FMild.1 mph90%29.98 "HgN/A
11:00 PM
Thu, May 28
66 °FMild.2 mph90%30.00 "HgN/A
10:00 PM66 °FMild.3 mph89%30.01 "HgN/A
9:00 PM66 °FOvercast.2 mph88%30.01 "Hg5 mi
8:00 PM67 °FMild.2 mph87%30.00 "HgN/A
7:00 PM67 °FMild.3 mph86%29.99 "HgN/A
6:00 PM68 °FMild.3 mph85%29.97 "HgN/A
5:00 PM69 °FMild.6 mph80%29.96 "HgN/A
4:00 PM70 °FMild.7 mph79%29.96 "HgN/A
3:00 PM71 °FOvercast.7 mph74%29.95 "Hg9 mi
2:00 PM72 °FMild.8 mph72%29.95 "HgN/A
1:00 PM73 °FMild.5 mph70%29.96 "HgN/A
Weather by CustomWeather, © 2015

See weather overviewHow to use our weather pages